Wind_Speed
12 12 12 12 12 12 12 12 12 12 12 12 12 13 13 13 13 13 13 13 13 13 12 12 12 12 12 12 12 13 13 12 12 12 12 12 12 13 13 13 13 14 13
13 13 13 13 13 13 13 13 13 13 13 13 14 14 14 14 13 13 13 13 13 13 13 13 13 13 13 13 13 13 14 14 14 14 13 13 13 14 14 14 14 14 14
13 13 14 14 14 14 15 15 15 15 15 15 15 15 15 15 14 14 14 14 14 14 14 13 13 13 13 14 14 14 14 14 14 15 15 14 14 15 15 16 15 14 15
13 14 14 15 15 16 16 16 16 16 16 16 16 16 15 16 16 16 16 15 15 15 15 15 14 14 14 14 15 15 15 15 15 15 15 16 16 16 16 16 16 16 15
14 15 15 16 16 17 17 17 17 17 17 17 17 16 17 17 17 17 17 17 17 16 16 16 16 16 16 16 16 17 17 17 17 17 17 17 17 17 17 17 17 17 17
15 16 17 17 17 17 18 18 19 19 19 19 18 18 18 18 18 18 19 18 18 18 18 17 18 18 18 18 19 19 19 19 19 19 19 19 19 19 19 19 18 18 18
17 17 17 17 18 18 19 20 20 20 20 20 20 20 20 20 19 20 20 20 20 20 19 19 19 19 20 20 20 20 21 20 20 20 20 21 21 21 21 21 20 20 19
18 18 19 19 19 19 19 20 20 21 21 22 22 21 21 22 22 21 21 21 21 21 21 21 21 21 21 21 22 22 22 23 23 22 22 22 23 23 23 22 22 21 21
19 19 19 20 20 21 21 20 20 21 22 23 23 23 22 23 23 23 23 23 22 22 23 23 23 23 23 23 23 23 24 24 24 24 24 24 24 24 24 24 23 23 23
20 20 20 20 20 21 21 22 22 22 23 24 25 25 24 24 24 24 23 24 24 24 25 25 25 24 25 25 25 25 26 26 26 26 27 27 27 26 25 25 25 25 24
20 20 20 21 21 22 23 23 23 24 24 25 25 26 26 25 25 25 25 25 26 26 26 26 26 26 26 26 27 27 28 28 28 28 28 29 29 28 27 27 27 27 26
20 20 21 21 22 23 24 24 24 24 24 25 26 26 27 27 27 27 27 27 28 27 27 27 28 28 28 28 28 28 29 29 29 29 29 29 30 29 29 29 29 29 29
22 22 22 23 23 24 24 25 25 26 26 26 26 27 28 28 28 28 28 28 29 29 29 29 29 29 29 30 30 30 30 30 30 31 31 31 31 31 31 31 30 30 30
23 23 24 24 24 24 25 25 26 26 27 27 27 28 29 29 29 30 30 30 30 30 30 30 30 30 30 30 30 30 31 31 31 31 32 32 32 32 31 31 31 31 31
23 23 24 25 25 25 26 27 27 27 27 28 28 28 29 29 30 31 31 31 31 32 32 31 31 31 31 31 31 31 32 32 32 32 32 32 32 33 32 32 32 32 32
25 25 25 26 26 27 27 28 28 28 28 28 29 29 30 30 30 31 32 32 32 32 33 33 33 33 33 33 33 34 33 33 32 33 33 33 33 34 34 34 33 33 32
26 26 27 27 28 28 28 28 28 28 29 29 30 30 30 31 31 31 32 32 33 33 34 34 34 34 34 34 34 34 34 34 33 33 33 33 34 34 34 34 33 33 32
27 28 28 28 28 28 28 28 29 30 30 31 32 32 32 32 33 33 33 33 34 34 34 35 35 36 36 35 35 35 34 34 34 33 33 33 33 33 33 33 33 33 33
28 29 29 29 29 29 29 30 30 31 32 33 33 33 33 34 34 34 34 34 35 35 35 35 35 35 36 36 36 36 35 35 34 34 33 33 33 34 34 34 34 33 34
29 29 30 30 30 31 31 31 32 33 33 34 34 34 35 35 35 35 35 35 35 36 36 35 34 35 36 36 36 36 36 35 35 35 34 34 34 35 35 35 35 34 34
30 30 30 30 31 32 32 32 33 34 34 34 35 35 35 36 36 36 36 36 36 37 37 36 36 36 37 38 37 36 36 36 35 35 35 35 35 35 36 36 35 35 36
30 31 31 31 32 32 33 33 34 34 34 34 35 36 36 37 37 37 37 37 37 38 38 38 38 38 37 37 36 36 36 36 36 35 35 35 34 35 36 36 36 36 36
31 32 32 32 32 33 33 33 33 34 34 35 36 36 37 37 36 37 37 37 37 37 37 38 38 38 37 37 37 36 37 36 36 36 35 35 35 36 36 36 36 36 35
33 33 33 33 33 34 34 34 34 34 35 35 35 36 36 36 36 36 37 37 37 37 37 37 37 37 38 37 37 37 37 37 37 37 36 36 36 36 36 36 35 35 34
34 34 34 34 34 34 34 34 34 34 34 34 34 35 35 35 35 36 36 37 36 36 36 37 37 37 37 37 36 37 37 37 37 37 37 36 36 36 36 36 35 36 36
34 34 34 34 34 34 34 34 33 33 33 33 33 33 33 34 34 34 35 35 35 35 35 35 35 35 36 36 36 36 36 36 36 36 35 36 36 36 36 36 36 36 36
Wind_Direction
264 263 264 265 265 266 266 266 267 270 273 273 275 278 280 281 284 287 289 292 293 293 291 288 288 290 291 293 293 290 287 287 287 286 285 286 286 284 285 286 285 285 281
266 262 264 265 266 268 269 270 269 270 271 274 275 279 281 280 281 283 285 287 290 291 288 286 285 284 286 289 290 291 289 286 286 286 286 286 288 287 287 286 286 285 283
266 268 267 267 268 269 271 272 272 271 273 276 277 278 280 279 281 281 282 283 284 287 286 285 285 284 286 288 288 288 289 289 287 286 286 285 285 286 287 286 285 284 283
269 271 272 272 271 270 271 272 273 273 274 276 277 277 278 279 280 281 281 281 281 282 281 282 283 283 285 287 288 289 289 288 288 286 286 286 287 287 288 287 285 283 282
273 273 274 275 274 272 271 271 273 274 274 275 277 278 278 278 279 279 279 279 278 278 280 280 281 283 284 285 286 287 287 286 286 287 287 288 287 287 287 286 283 283 282
275 276 275 275 275 274 273 273 273 274 275 276 277 278 278 278 279 279 279 277 276 277 279 280 281 284 284 284 284 284 284 284 284 284 284 284 284 285 285 284 281 280 280
274 275 274 273 273 274 274 274 274 274 274 276 276 278 278 278 279 281 280 279 277 275 278 281 281 282 283 283 283 283 283 282 282 283 283 282 282 282 282 282 280 279 279
275 275 274 273 274 275 275 275 275 275 275 275 276 277 279 279 279 280 281 280 279 277 277 279 281 282 282 283 283 283 281 281 281 281 281 282 281 281 281 281 280 277 277
275 275 275 275 274 275 276 276 276 276 276 276 275 276 277 278 279 280 279 279 278 278 279 278 279 280 281 282 282 282 281 281 281 281 281 281 281 281 281 281 280 277 276
277 279 278 277 276 276 275 275 276 276 277 277 276 275 275 276 277 279 279 280 279 278 279 279 279 281 279 281 282 281 280 280 279 279 280 280 279 279 279 279 278 277 276
279 279 279 278 277 276 275 276 276 278 279 278 278 277 276 277 277 278 279 280 281 280 280 279 280 280 280 280 280 280 281 280 279 279 279 278 277 276 277 277 277 277 276
280 280 279 278 278 278 279 279 278 279 280 280 279 278 277 277 277 277 278 278 279 280 281 279 280 279 279 280 280 281 281 280 279 279 279 277 276 275 276 276 276 276 276
281 280 281 280 280 279 280 280 280 280 280 279 279 279 279 278 277 276 277 278 279 279 280 279 279 279 280 281 281 280 281 281 280 279 279 277 275 274 275 275 275 276 276
282 282 282 282 281 280 280 280 280 281 281 281 280 280 280 279 278 277 277 278 279 279 279 279 280 281 281 281 281 282 282 282 281 280 279 277 276 274 274 274 275 276 276
284 283 283 281 280 280 280 281 281 281 282 282 283 283 282 281 279 278 278 278 279 278 279 279 281 281 282 282 282 282 283 283 281 280 279 277 276 274 274 273 273 274 275
285 283 282 281 280 280 280 281 281 280 281 284 284 285 284 282 281 280 279 279 278 278 279 279 280 281 282 282 282 282 282 282 281 280 279 277 277 276 274 274 272 273 274
286 285 283 282 281 280 281 281 281 281 282 284 285 285 285 284 282 282 281 279 278 278 279 279 279 280 282 282 283 282 281 280 281 281 280 278 277 277 276 274 272 272 274
286 286 285 283 283 282 281 281 281 281 282 283 283 284 285 284 284 282 281 281 280 278 278 279 279 279 281 282 281 281 280 280 280 280 280 279 277 276 275 274 272 273 273
287 286 286 284 282 282 282 281 281 282 282 282 284 285 286 286 284 283 282 281 281 281 280 279 280 280 280 281 280 280 280 279 279 279 279 279 277 275 275 274 273 272 272
288 287 286 285 283 281 281 281 282 283 283 283 283 284 285 286 286 284 283 282 282 282 280 280 280 280 280 279 279 279 278 277 277 278 278 279 278 277 276 275 273 273 272
288 288 287 286 285 284 283 283 283 283 284 284 284 284 285 285 285 285 283 283 283 282 281 281 281 280 280 279 278 278 277 277 276 277 277 277 277 277 276 277 275 274 273
289 288 288 288 287 287 286 285 285 285 285 285 286 286 286 286 285 285 284 285 284 283 281 281 280 279 279 279 278 277 277 276 276 276 277 278 277 277 277 277 276 275 273
289 289 289 288 288 288 287 286 286 286 286 287 287 287 287 286 285 285 285 285 284 282 282 281 280 280 280 279 278 276 276 275 275 276 276 276 276 277 277 278 277 276 274
288 288 289 289 288 288 288 287 287 287 287 287 287 288 287 286 285 285 284 284 283 282 281 281 280 279 279 279 277 277 276 276 275 275 275 275 276 276 276 276 276 275 274
288 288 288 287 288 288 288 287 287 288 288 287 287 287 288 287 287 287 287 286 285 283 281 281 281 280 280 278 277 277 277 277 275 274 274 274 274 276 277 276 276 276 275
288 288 288 288 287 287 289 289 288 289 288 289 288 287 288 288 288 288 288 287 286 285 284 283 283 282 281 279 277 277 277 277 276 275 274 274 275 277 277 277 277 277 276
Height
5856 5856 5856 5856 5855 5855 5854 5854 5854 5853 5853 5853 5852 5852 5851 5850 5849 5848 5847 5845 5844 5843 5842 5841 5840 5839 5838 5837 5836 5835 5834 5833 5832 5831 5830 5828 5827 5826 5825 5824 5823 5822 5821
5853 5853 5853 5852 5852 5852 5851 5851 5851 5850 5850 5850 5849 5848 5848 5847 5846 5845 5844 5842 5841 5840 5839 5838 5837 5836 5835 5834 5833 5832 5831 5830 5828 5828 5827 5826 5825 5823 5822 5821 5820 5819 5818
5850 5849 5849 5849 5849 5849 5848 5848 5847 5847 5846 5846 5845 5845 5844 5843 5843 5842 5841 5839 5838 5837 5836 5835 5834 5833 5832 5831 5830 5829 5827 5826 5825 5824 5823 5822 5822 5820 5819 5817 5816 5815 5814
5847 5846 5846 5845 5845 5845 5844 5844 5844 5843 5843 5842 5841 5841 5840 5840 5839 5838 5837 5836 5835 5834 5833 5832 5831 5830 5829 5828 5826 5825 5824 5823 5822 5820 5820 5819 5817 5817 5815 5814 5812 5811 5810
5843 5842 5842 5841 5841 5841 5840 5840 5839 5839 5838 5838 5837 5837 5836 5835 5834 5834 5833 5832 5831 5830 5829 5828 5827 5826 5825 5823 5822 5821 5820 5819 5818 5817 5816 5815 5813 5812 5811 5810 5809 5807 5806
5839 5838 5838 5837 5837 5836 5836 5835 5835 5834 5834 5833 5833 5832 5831 5830 5830 5829 5828 5827 5826 5825 5824 5823 5822 5821 5820 5819 5818 5817 5816 5814 5813 5812 5811 5810 5809 5808 5807 5805 5804 5803 5801
5835 5834 5833 5833 5832 5831 5831 5830 5830 5829 5829 5828 5828 5827 5826 5825 5824 5824 5823 5822 5821 5820 5819 5818 5817 5816 5815 5814 5813 5812 5811 5809 5808 5807 5806 5804 5803 5802 5801 5800 5799 5798 5797
5830 5829 5828 5828 5827 5826 5826 5825 5824 5824 5823 5822 5822 5821 5821 5820 5819 5818 5817 5817 5815 5815 5814 5813 5812 5811 5810 5808 5807 5806 5805 5804 5802 5801 5800 5799 5797 5796 5795 5794 5793 5792 5791
5825 5824 5823 5822 5821 5821 5820 5819 5819 5818 5817 5817 5816 5815 5815 5814 5813 5812 5811 5810 5810 5809 5808 5807 5806 5805 5803 5802 5801 5800 5799 5797 5796 5795 5793 5792 5791 5790 5789 5788 5787 5786 5785
5819 5818 5817 5816 5816 5815 5814 5814 5813 5812 5811 5810 5809 5808 5808 5807 5806 5806 5804 5804 5803 5802 5801 5800 5799 5798 5797 5796 5794 5793 5792 5790 5789 5788 5786 5785 5784 5783 5782 5781 5780 5779 5778
5814 5813 5812 5811 5810 5809 5808 5807 5806 5806 5805 5803 5802 5801 5801 5800 5799 5799 5798 5797 5796 5795 5794 5793 5792 5791 5789 5788 5787 5786 5784 5783 5781 5780 5778 5777 5776 5775 5774 5773 5772 5771 5771
5808 5807 5806 5805 5804 5803 5802 5801 5800 5799 5798 5796 5795 5794 5793 5793 5792 5791 5790 5789 5788 5787 5786 5785 5784 5783 5782 5780 5779 5777 5776 5774 5773 5771 5770 5769 5767 5766 5766 5765 5764 5763 5762
5802 5801 5800 5799 5798 5796 5795 5794 5793 5792 5790 5789 5788 5787 5786 5785 5784 5783 5782 5781 5780 5779 5778 5777 5776 5774 5773 5772 5770 5769 5767 5765 5764 5762 5761 5760 5758 5758 5757 5756 5755 5754 5753
5796 5794 5793 5792 5791 5790 5788 5787 5786 5785 5783 5782 5780 5779 5778 5776 5775 5774 5773 5772 5771 5770 5769 5768 5767 5766 5764 5763 5761 5759 5758 5756 5754 5753 5751 5750 5749 5748 5747 5746 5745 5745 5744
5789 5788 5786 5785 5784 5782 5781 5780 5779 5777 5776 5774 5773 5771 5769 5768 5767 5765 5764 5763 5762 5761 5760 5759 5758 5756 5755 5754 5752 5750 5748 5746 5744 5743 5741 5740 5739 5738 5737 5736 5736 5735 5734
5782 5781 5779 5778 5776 5775 5773 5772 5771 5769 5768 5766 5765 5763 5761 5759 5758 5756 5755 5754 5753 5752 5750 5749 5748 5747 5745 5744 5742 5740 5738 5736 5734 5733 5731 5730 5729 5728 5727 5726 5726 5725 5724
5775 5773 5772 5770 5769 5767 5765 5764 5763 5761 5760 5758 5756 5754 5752 5751 5749 5747 5745 5744 5743 5742 5741 5739 5738 5736 5735 5733 5731 5729 5728 5726 5724 5723 5721 5720 5719 5718 5717 5716 5715 5715 5714
5767 5765 5764 5762 5761 5759 5757 5756 5754 5753 5751 5749 5747 5745 5743 5741 5739 5738 5736 5734 5733 5731 5730 5729 5727 5726 5724 5722 5721 5719 5717 5715 5713 5712 5711 5709 5708 5707 5706 5706 5705 5704 5704
5759 5757 5755 5754 5752 5750 5749 5747 5745 5744 5742 5740 5738 5736 5734 5731 5729 5727 5726 5724 5722 5721 5719 5717 5716 5714 5713 5711 5709 5707 5706 5704 5703 5702 5700 5699 5698 5697 5696 5695 5694 5694 5693
5750 5748 5746 5745 5743 5741 5740 5738 5736 5734 5732 5730 5728 5726 5724 5721 5719 5717 5715 5713 5712 5710 5708 5706 5705 5703 5702 5700 5698 5696 5695 5693 5692 5691 5690 5688 5687 5686 5684 5684 5683 5682 5682
5741 5739 5737 5735 5734 5732 5730 5728 5726 5724 5722 5720 5718 5716 5713 5711 5709 5707 5705 5702 5701 5699 5697 5695 5693 5692 5690 5688 5686 5684 5683 5682 5681 5679 5678 5677 5676 5675 5673 5672 5671 5671 5670
5732 5730 5728 5726 5724 5722 5720 5718 5716 5714 5712 5710 5707 5705 5703 5700 5698 5696 5693 5691 5689 5687 5685 5683 5682 5680 5678 5676 5674 5673 5671 5670 5669 5668 5667 5666 5664 5663 5662 5661 5660 5659 5657
5723 5721 5718 5716 5714 5712 5710 5708 5706 5704 5702 5699 5697 5694 5692 5689 5687 5684 5682 5680 5678 5675 5673 5671 5670 5668 5666 5664 5662 5661 5660 5658 5657 5657 5656 5655 5653 5652 5650 5649 5648 5647 5646
5713 5711 5709 5706 5704 5702 5699 5697 5696 5693 5691 5688 5686 5683 5680 5678 5675 5673 5670 5668 5666 5664 5662 5660 5658 5656 5654 5652 5650 5649 5648 5647 5646 5645 5644 5643 5642 5640 5639 5637 5636 5635 5634
5703 5700 5698 5696 5694 5692 5689 5687 5685 5683 5680 5677 5675 5672 5669 5667 5664 5662 5659 5657 5654 5652 5650 5648 5646 5644 5642 5640 5638 5637 5636 5635 5634 5633 5632 5631 5630 5629 5627 5626 5625 5624 5623
5692 5690 5688 5686 5683 5681 5679 5677 5674 5672 5669 5666 5664 5661 5659 5656 5653 5651 5648 5645 5643 5641 5638 5636 5634 5632 5631 5628 5627 5625 5624 5623 5621 5620 5619 5618 5618 5617 5616 5615 5613 5612 5612